Home   Weather   Biel   Past weeks

Flag for Switzerland Past Weather in Biel, Switzerland — Yesterday and Last 2 Weeks

Now
70 °F

Mild.


Feels Like: 75 °F
Forecast: 52 / 80 °F
Wind: 6 mph from Northeast

Location: Grenchen

Current Time: Aug 30, 2016 at 9:05:18 PM

Latest Report: Aug 30, 2016 at 8:00 PM


Visibility: N/A

Pressure: 30.11 "Hg

Humidity: 64%

Dew Point: 57 °F

Location of BielLocation

Past Weather in Biel — Graph

°F

Biel Temperature Yesterday

Maximum temperature yesterday: 74 °F (at 2:00 PM)
Minimum temperature yesterday: 66 °F (at 5:00 AM)
Average temperature yesterday: 69 °F

High & Low Weather Summary for the Past Weeks

 TemperatureHumidityPressure
High89 °F (Aug 26, 5:00 PM)100% (Aug 25, 6:00 AM)30.41 "Hg (Aug 25, 6:00 AM)
Low47 °F (Aug 22, 7:00 AM)36% (Aug 28, 5:00 PM)29.81 "Hg (Aug 17, 5:00 PM)
Average69 °F76%30.07 "Hg
* Reported Aug 15 7:00 PM — Aug 30 7:00 PM, Biel, Weather by CustomWeather, © 2016

Note: Actual official high and low records may vary slightly from our data, if they occured in-between our weather recording intervals... More about our weather records

Advertising

Biel Weather History for the Previous 24 Hours

Scroll right to see more
 ConditionsComfort  
Time TempWeatherWind HumidityBarometerVisibility
7:00 PM
Tue, Aug 30
74 °FMild.14 mph54%30.09 "HgN/A
6:00 PM77 °FMild.13 mph51%30.09 "HgN/A
5:00 PM77 °FMild.15 mph50%30.09 "HgN/A
4:00 PM77 °FMild.14 mph49%30.10 "HgN/A
3:00 PM78 °FWarm.20 mph48%30.11 "HgN/A
2:00 PM77 °FMild.17 mph50%30.12 "HgN/A
1:00 PM75 °FMild.15 mph54%30.13 "HgN/A
12:00 PM73 °FMild.17 mph58%30.14 "HgN/A
11:00 AM71 °FMild.16 mph61%30.15 "HgN/A
10:00 AM69 °FMild.10 mph66%30.16 "HgN/A
9:00 AM65 °FMild.6 mph74%30.17 "HgN/A
8:00 AM62 °FCool.2 mph82%30.18 "HgN/A
7:00 AM63 °FMild.9 mph76%30.15 "HgN/A
6:00 AM63 °FMild.8 mph74%30.15 "HgN/A
5:00 AM62 °FCool.2 mph81%30.15 "HgN/A
4:00 AM61 °FCool.2 mph84%30.17 "HgN/A
3:00 AM62 °FCool.3 mph81%30.17 "HgN/A
2:00 AM64 °FMild.No wind78%30.18 "HgN/A
1:00 AM64 °FMild.2 mph78%30.20 "HgN/A
12:00 AM65 °FMild.1 mph73%30.19 "HgN/A
11:00 PM
Mon, Aug 29
67 °FMild.2 mph68%30.18 "HgN/A
10:00 PM67 °FMild.1 mph68%30.17 "HgN/A
9:00 PM68 °FMild.3 mph66%30.15 "HgN/A
Weather by CustomWeather, © 2016

See weather overviewHow to use our weather pages